Station MRHO1 - 9063079 - Marblehead, OH Image indicating link to RSS feed of recent meteorological observations for station MRHO1


Conditions at MRHO1 as of
(3:00 am EDT)
0700 GMT on 06/24/2024:
     

Click on the graph icon in the table below to see a time series plot of the last five days of that observation.

5-day plot - Wind Direction Wind Direction (WDIR):NNE ( 20 deg true )
5-day plot - Wind Speed Wind Speed (WSPD): 5.1 kts
5-day plot - Wind Gust Wind Gust (GST): 8.0 kts
5-day plot - Atmospheric Pressure Atmospheric Pressure (PRES):29.80 in
5-day plot - Air Temperature Air Temperature (ATMP): 69.3 °F
5-day plot - Water Temperature Water Temperature (WTMP): 73.8 °F
5-day plot - Dew Point Dew Point (DEWP): 58.8 °F
5-day plot - Wind Speed at 10 Meters Wind Speed at 10 meters (WSPD10M): 5.8 kts
5-day plot - Wind Speed at 20 Meters Wind Speed at 20 meters (WSPD20M): 5.8 kts
5-day plot -  Wind Speed, Wind Gust and Atmospheric Pressure Combined plot of Wind Speed, Gust, and Air Pressure
NOS Water Level Observation Network Water Level
Previous observations
TIME
(EDT)
5-day plot - Wind Direction
WDIR
 
5-day plot - Wind Speed
WSPD
kts
5-day plot - Wind Gust
GST
kts
5-day plot - Wave Height
WVHT
ft
5-day plot - Dominant Wave Period
DPD
sec
5-day plot - Average Wave Period
APD
sec
5-day plot - Mean Wave Direction
MWD
 
5-day plot - Atmospheric Pressure
PRES
in
5-day plot - Pressure Tendency
PTDY
in
5-day plot - Air Temperature
ATMP
°F
5-day plot - Water Temperature
WTMP
°F
5-day plot - Dew Point
DEWP
°F
5-day plot - Salinity
SAL
psu
5-day plot - Visibility
VIS
nmi
5-day plot - Tide (above MLLW)
TIDE
ft
2024-06-24 02:54 amNNE 7.0 9.9----29.80- 69.3 73.8 59.0---
2024-06-24 02:48 amNNE 8.9 9.9----29.80- 68.7 73.8 59.2---
2024-06-24 02:42 amNNE 5.1 8.0----29.80- 68.5 73.8 58.5---
2024-06-24 02:36 amNNE 7.0 8.9----29.80- 69.6 73.8 58.5---
2024-06-24 02:30 am NE 8.0 9.9----29.79- 68.9 73.8 58.3---
2024-06-24 02:24 am NE 6.0 7.0----29.79- 69.4 73.8 58.3---
2024-06-24 02:18 amNNE 4.1 8.9----29.79- 66.2 73.9 57.7---
2024-06-24 02:12 amNNE 8.0 9.9----29.79- 69.3 73.9 57.7---
2024-06-24 02:06 amNNE 8.9 12.0----29.78- 69.6 73.9 57.2---
2024-06-24 02:00 am NE 6.0 8.9----29.78+0.04 71.2 73.9 57.7---
2024-06-24 01:54 am NE 7.0 9.9----29.78- 71.4 73.9 58.5---
2024-06-24 01:48 amNNE 7.0 8.9----29.78- 71.4 73.9 58.6---
2024-06-24 01:42 amNNE 8.0 19.0----29.78- 71.4 73.9 59.2---
2024-06-24 01:36 amNNW 15.9 17.1----29.78- 72.9 73.9 58.6---
2024-06-24 01:30 amNNW 14.0 15.9----29.78- 73.0 73.9 59.2---
2024-06-24 01:24 amNNW 13.0 17.1----29.78- 73.0 73.9 59.5---
2024-06-24 01:18 amNNW 13.0 15.9----29.78- 73.0 73.9 59.0---
2024-06-24 01:12 am NW 14.0 15.9----29.78- 73.0 73.9 59.0---
2024-06-24 01:06 am NW 15.0 17.1----29.78- 73.0 74.1 58.6---
2024-06-24 01:00 amNNW 15.0 17.1----29.77+0.06 73.0 74.1 58.8---
2024-06-24 12:54 am NW 15.0 18.1----29.77- 73.2 74.1 58.8---
2024-06-24 12:48 am NW 15.0 18.1----29.77- 73.2 74.1 58.6---
2024-06-24 12:42 am NW 15.9 18.1----29.77- 73.2 74.1 58.6---
2024-06-24 12:36 am NW 15.0 18.1----29.77- 73.4 74.1 58.8---
2024-06-24 12:30 am NW 15.0 17.1----29.77- 73.4 74.1 58.8---
2024-06-24 12:24 am NW 15.0 19.0----29.77- 73.4 74.1 58.8---
2024-06-24 12:18 am NW 15.0 19.0----29.76- 73.4 74.1 58.8---
2024-06-24 12:12 am NW 15.9 19.0----29.76- 73.6 74.3 58.6---
2024-06-24 12:06 am NW 15.9 19.0----29.76- 73.6 74.3 58.3---
2024-06-23 11:48 pm NW 15.9 19.0----29.75-- 74.3----
2024-06-23 11:42 pmNNW 15.0 19.0----29.75-- 74.3----
2024-06-23 11:36 pmNNW 15.9 19.0----29.75-- 74.3----
2024-06-23 11:30 pmNNW 14.0 19.0----29.75- 73.8 74.3 59.5---
2024-06-23 11:24 pmNNW 17.1 20.0----29.75- 73.8 74.3 59.2---
2024-06-23 11:18 pmNNW 17.1 18.1----29.74- 73.9 74.3 59.7---
2024-06-23 11:12 pmNNW 14.0 18.1----29.74- 73.9 74.3 61.2---
2024-06-23 11:06 pm NW 15.0 18.1----29.74- 73.9 74.3 61.9---
2024-06-23 11:00 pmWNW 15.9 19.0----29.74+0.04 74.1 74.3 61.2---
2024-06-23 10:54 pmWNW 15.0 19.0----29.74- 74.1 74.3 61.3---
2024-06-23 10:48 pmWNW 15.9 18.1----29.73- 74.1 74.5 60.8---
2024-06-23 10:42 pmWNW 15.9 20.0----29.73- 74.3 74.5 61.0---
2024-06-23 10:36 pmWNW 15.0 19.0----29.73- 74.1 74.5 61.3---
2024-06-23 10:30 pmWNW 15.9 18.1----29.73- 74.3 74.5 61.5---
2024-06-23 10:24 pmWNW 17.1 19.0----29.72- 74.3 74.5 61.3---
2024-06-23 10:18 pmWNW 15.9 19.0----29.72- 74.3 74.5 61.3---
2024-06-23 10:12 pmWNW 15.0 19.0----29.72- 74.3 74.5 61.0---
2024-06-23 10:06 pmWNW 17.1 19.0----29.72- 74.5 74.5 60.6---
2024-06-23 10:00 pmWNW 17.1 19.0----29.72+0.03 74.5 74.5 60.6---
2024-06-23 09:54 pmWNW 15.9 18.1----29.72- 74.5 74.5 61.0---
2024-06-23 09:48 pmWNW 15.9 18.1----29.71-- 74.7----
2024-06-23 09:42 pmWNW 15.0 19.0----29.71-- 74.7----
2024-06-23 09:36 pmWNW 15.0 19.0----29.71-- 74.7----
2024-06-23 09:30 pmWNW 18.1 19.0----29.71-------
2024-06-23 09:24 pmWNW 17.1 20.0----29.71-------
2024-06-23 09:18 pmWNW 15.9 19.0----29.71- 74.7 74.7 61.2---
2024-06-23 09:12 pmWNW 17.1 19.0----29.70- 74.8 74.7 60.4---
2024-06-23 09:06 pmWNW 14.0 18.1----29.70- 74.7 74.7 61.0---
2024-06-23 09:00 pmWNW 14.0 17.1----29.70+0.02 74.8 74.8 60.8---
2024-06-23 08:54 pmWNW 13.0 15.0----29.70- 74.8 74.8 61.3---
2024-06-23 08:48 pmWNW 13.0 17.1----29.70- 74.8 74.8 61.0---
2024-06-23 08:42 pmWNW 14.0 15.9----29.70- 74.8 74.8 61.3---
2024-06-23 08:36 pmWNW 11.1 13.0----29.70- 74.5 74.8 62.4---
2024-06-23 08:30 pmWNW 13.0 15.9----29.70- 74.7 74.8 61.7---
2024-06-23 08:24 pmWNW 13.0 17.1----29.70- 74.8 74.8 61.2---
2024-06-23 08:18 pmWNW 15.0 18.1----29.70- 74.8 75.0 60.8---
2024-06-23 08:12 pmWNW 15.0 17.1----29.70- 74.8 75.0 60.6---
2024-06-23 08:06 pmWNW 15.9 20.0----29.70- 75.2 75.0 60.3---
2024-06-23 08:00 pm NW 17.1 19.0----29.70+0.04 75.0 75.0 61.0---
2024-06-23 07:54 pm NW 17.1 20.0----29.70- 75.0 75.0 60.8---
2024-06-23 07:48 pm NW 15.9 20.0----29.70- 75.0 75.0 61.2---
2024-06-23 07:42 pm NW 15.9 20.0----29.70- 75.0 75.2 60.6---
2024-06-23 07:36 pm NW 18.1 20.0----29.70- 75.2 75.2 60.8---
2024-06-23 07:30 pm NW 15.0 21.0----29.69- 75.2 75.2 61.2---
2024-06-23 07:24 pm NW 18.1 20.0----29.69- 75.4 75.2 60.6---
2024-06-23 07:18 pm NW 15.9 19.0----29.69-- 75.2----
2024-06-23 07:12 pm NW 17.1 20.0----29.69-- 75.2----
2024-06-23 07:06 pm NW 15.9 21.0----29.69-- 75.2----
2024-06-23 07:00 pm NW 18.1 21.0----29.69+0.04------
2024-06-23 06:54 pm NW 18.1 21.0----29.69-------
2024-06-23 06:48 pm NW 15.0 20.0----29.68- 75.9 75.2 62.2---
2024-06-23 06:42 pm NW 17.1 20.0----29.68- 76.1 75.2 62.2---
2024-06-23 06:36 pm NW 14.0 17.1----29.68- 75.9 75.2 62.1---
2024-06-23 06:30 pm NW 15.0 17.1----29.68- 76.1 75.2 62.6---
2024-06-23 06:24 pm NW 15.0 18.1----29.68- 76.3 75.4 62.4---
2024-06-23 06:18 pm NW 15.9 19.0----29.67-- 75.4----
2024-06-23 06:12 pmWNW 17.1 20.0----29.67-- 75.4----
2024-06-23 06:06 pmWNW 17.1 18.1----29.68-- 75.2----
2024-06-23 06:00 pmWNW 15.9 19.0----29.68+0.04 76.5 75.2 62.4---
2024-06-23 05:54 pmWNW 15.9 18.1----29.67- 76.5 75.2 62.8---
2024-06-23 05:48 pmWNW 15.0 18.1----29.67- 76.1 75.4 63.0---
2024-06-23 05:42 pmWNW 18.1 20.0----29.67- 76.5 75.4 63.1---
2024-06-23 05:36 pmWNW 17.1 21.0----29.67- 76.6 75.4 62.4---
2024-06-23 05:30 pmWNW 17.1 20.0----29.67- 76.8 75.4 62.8---
2024-06-23 05:24 pmWNW 17.1 21.0----29.67- 76.8 75.4 62.6---
2024-06-23 05:18 pmWNW 18.1 22.0----29.67- 77.0 75.4 62.2---
2024-06-23 05:12 pmWNW 18.1 21.0----29.66- 77.5 75.2 61.3---
2024-06-23 05:06 pmWNW 18.1 21.0----29.66- 77.4 75.4 61.5---
2024-06-23 05:00 pmWNW 15.9 20.0----29.66+0.03 77.4 75.4 61.7---
2024-06-23 04:54 pmWNW 18.1 21.0----29.66- 77.7 75.4 61.9---
2024-06-23 04:48 pmWNW 17.1 21.0----29.66- 77.4 75.4 62.4---
2024-06-23 04:42 pmWNW 17.1 21.0----29.66- 77.5 75.4 62.8---
2024-06-23 04:36 pmWNW 19.0 21.0----29.66- 77.5 75.4 63.0---
2024-06-23 04:30 pmWNW 15.9 21.0----29.66- 77.0 75.4 63.1---
2024-06-23 04:24 pmWNW 17.1 21.0----29.66- 77.0 75.6 62.6---
2024-06-23 04:18 pmWNW 18.1 22.0----29.66- 77.2 75.4 62.1---
2024-06-23 04:12 pmWNW 18.1 21.0----29.66- 77.0 75.6 62.8---
2024-06-23 04:06 pmWNW 19.0 22.9----29.65- 77.4 75.6 62.4---
2024-06-23 04:00 pmWNW 19.0 22.0----29.65+0.02 77.4 75.6 62.6---
2024-06-23 03:54 pmWNW 19.0 22.0----29.65- 77.0 75.4 62.4---
2024-06-23 03:48 pmWNW 18.1 21.0----29.65- 76.8 75.4 63.5---
2024-06-23 03:42 pmWNW 19.0 21.0----29.65- 77.0 75.4 63.9---
2024-06-23 03:36 pmWNW 18.1 20.0----29.65- 77.0 75.6 63.3---
2024-06-23 03:30 pmWNW 18.1 21.0----29.65- 77.5 75.4 63.3---
2024-06-23 03:24 pmWNW 18.1 21.0----29.64- 77.4 75.4 63.5---
2024-06-23 03:18 pmWNW 15.9 22.0----29.64- 77.5 75.4 63.3---
2024-06-23 03:12 pmWNW 18.1 20.0----29.64- 77.7 75.4 63.3---
2024-06-23 03:06 pmWNW 18.1 22.0----29.63- 77.4 75.4 63.7---
2024-06-23 03:00 pmWNW 18.1 22.0----29.64+0.00 77.7 75.4 63.5---
2024-06-23 02:54 pmWNW 15.9 19.0----29.63- 77.5 75.4 64.0---
2024-06-23 02:48 pmWNW 15.9 22.0----29.63- 77.5 75.6 64.6---
2024-06-23 02:42 pm W 15.9 19.0----29.63- 78.8 75.4 64.8---
2024-06-23 02:36 pmWNW 14.0 17.1----29.63- 78.4 75.4 64.9---
2024-06-23 02:30 pm W 14.0 17.1----29.63- 79.5 75.4 65.1---
2024-06-23 02:24 pm W 14.0 18.1----29.63- 78.4 75.4 65.8---
2024-06-23 02:18 pmWNW 15.0 18.1----29.63- 78.3 75.4 64.8---
2024-06-23 02:12 pmWNW 13.0 18.1----29.63- 78.8 75.4 64.6---
2024-06-23 02:06 pm W 13.0 17.1----29.63- 80.4 75.4 65.3---
2024-06-23 02:00 pm W 13.0 20.0----29.63-0.01 80.1 75.4 64.9---
2024-06-23 01:54 pm W 12.0 17.1----29.63- 80.4 75.4 64.4---
2024-06-23 01:48 pm W 8.0 15.9----29.62- 81.0 75.2 66.0---
2024-06-23 01:42 pm W 12.0 18.1----29.63- 80.4 75.0 65.3---
2024-06-23 01:36 pm W 11.1 17.1----29.63- 80.2 75.0 65.1---
2024-06-23 01:30 pm W 8.9 15.0----29.63- 80.1 74.7 66.2---
2024-06-23 01:24 pm W 12.0 18.1----29.63- 79.3 73.9 65.5---
2024-06-23 01:18 pm W 11.1 15.9----29.63- 79.3 73.4 65.3---
2024-06-23 01:12 pm W 14.0 19.0----29.63- 79.0 73.6 65.7---
2024-06-23 01:06 pm W 12.0 22.9----29.63- 78.8 73.9 65.8---
2024-06-23 01:00 pm W 15.0 21.0----29.63- 78.8 73.8 65.5---
2024-06-23 12:54 pm W 13.0 19.0----29.63- 79.3 73.6 65.7---
2024-06-23 12:48 pmWSW 11.1 17.1----29.63- 79.3 73.4 66.0---
2024-06-23 12:42 pm W 8.0 17.1----29.63- 78.6 73.8 66.6---
2024-06-23 12:36 pmWSW 7.0 13.0----29.63- 78.4 74.3 66.4---
2024-06-23 12:30 pmWSW 6.0 13.0----29.63- 78.1 74.3 66.7---
2024-06-23 12:24 pmWSW 7.0 15.9----29.63- 77.5 74.3 66.6---
2024-06-23 12:18 pmWSW 8.0 15.9----29.63- 77.2 74.3 66.4---
2024-06-23 12:12 pmWSW 6.0 17.1----29.64- 77.0 74.3 66.7---
2024-06-23 12:06 pmWSW 7.0 12.0----29.64- 76.3 74.1 65.8---
2024-06-23 12:00 pm SW 8.9 15.0----29.64- 76.1 74.5 65.8---
2024-06-23 11:54 am SW 6.0 15.9----29.64- 75.9 74.7 65.7---
2024-06-23 11:48 amWSW 7.0 15.0----29.64- 75.7 74.8 65.7---
2024-06-23 11:42 amWSW 8.0 13.0----29.64- 75.6 75.2 65.7---
2024-06-23 11:36 amWSW 8.0 15.0----29.64- 75.6 75.4 65.5---
2024-06-23 11:30 amWSW 4.1 14.0----29.64- 75.4 75.4 65.5---
2024-06-23 11:24 amWSW 4.1 14.0----29.64- 75.2 75.0 65.3---
2024-06-23 11:18 amWSW 8.0 15.0----29.64-- 75.2----
2024-06-23 11:12 amWSW 6.0 13.0----29.64-- 75.4----
2024-06-23 11:06 amWSW 7.0 18.1----29.64-- 75.6----
2024-06-23 11:00 amWSW 5.1 17.1----29.64+0.01------
2024-06-23 10:54 am SW 6.0 15.0----29.64-------
2024-06-23 10:48 amWSW 5.1 15.9----29.64- 76.1 75.9 64.6---
2024-06-23 10:42 amWSW 4.1 14.0----29.64- 75.6 76.1 64.4---
2024-06-23 10:36 am SW 7.0 14.0----29.64- 75.2 76.5 64.0---
2024-06-23 10:30 amSSW 8.0 20.0----29.64- 75.0 76.5 64.0---
2024-06-23 10:24 am SW 6.0 12.0----29.64- 74.5 76.5 63.7---
2024-06-23 10:18 am SW 6.0 14.0----29.65-- 76.3----
2024-06-23 10:12 am SW 5.1 11.1----29.65-- 76.3----
2024-06-23 10:06 amSSW 8.0 14.0----29.65-- 76.1----
2024-06-23 10:00 amSSW 5.1 11.1------ 73.8 76.1 63.1---
2024-06-23 09:54 amSSW 6.0 14.0------ 73.2 75.9 63.1---
2024-06-23 09:48 am SW 6.0 11.1----29.65- 73.0 75.7 62.8---
2024-06-23 09:42 amSSW 6.0 14.0----29.65- 73.0 75.7 63.0---
2024-06-23 09:36 amSSW 8.0 15.9----29.65- 72.9 75.7 62.6---
2024-06-23 09:30 am SW 7.0 13.0----29.65-- 76.1----
2024-06-23 09:24 amSSW 8.9 14.0----29.65-- 75.9----
2024-06-23 09:18 amSSW 6.0 11.1----29.65- 72.7 75.9 63.1---
2024-06-23 09:12 amSSW 8.0 11.1----29.65- 72.5 76.3 62.8---
2024-06-23 09:06 amSSW 6.0 13.0----29.65- 72.5 76.5 63.1---
2024-06-23 09:00 am S 5.1 11.1------- 76.8----
2024-06-23 08:54 amSSW 7.0 13.0------- 76.8----
2024-06-23 08:48 amSSW 8.0 14.0----29.65- 71.8 76.8 62.6---
2024-06-23 08:42 amSSW 8.0 13.0----29.65- 71.6 77.2 62.6---
2024-06-23 08:36 amSSW 6.0 15.0----29.64- 71.6 77.4 62.6---
2024-06-23 08:30 amSSW 8.0 15.0----29.64- 71.6 77.4 62.6---
2024-06-23 08:24 amSSW 8.9 12.0----29.64- 71.4 77.4 62.6---
2024-06-23 08:18 amSSW 6.0 13.0----29.64- 71.4 77.5 63.1---
2024-06-23 08:12 amSSW 7.0 14.0----29.64- 71.2 77.5 62.8---
2024-06-23 08:06 amSSW 7.0 12.0----29.63- 71.2 77.5 62.6---
2024-06-23 08:00 amSSW 5.1 12.0----29.63-0.02- 77.5----
2024-06-23 07:54 am S 8.0 14.0----29.62-- 77.5----
2024-06-23 07:48 am S 7.0 14.0----29.62- 70.9 77.5 63.3---
2024-06-23 07:42 am S 8.0 15.9----29.62- 70.7 77.5 63.1---
2024-06-23 07:36 am S 8.0 12.0----29.63- 70.5 77.5 63.1---
2024-06-23 07:30 amSSW 7.0 14.0----29.63- 70.7 77.5 63.3---
2024-06-23 07:24 am S 6.0 14.0----29.63- 70.7 77.5 63.5---
2024-06-23 07:18 am S 7.0 13.0----29.63-- 77.7----
2024-06-23 07:12 am S 4.1 9.9----29.64-- 77.7----
2024-06-23 07:06 amSSW 6.0 9.9----29.65-- 77.7----
2024-06-23 07:00 am S 5.1 8.9------ 69.8 77.7 62.8---
2024-06-23 06:54 am S 5.1 9.9------ 68.7 77.7 62.1---
2024-06-23 06:48 amSSW 5.1 8.0----29.67- 69.4 77.7 62.4---
2024-06-23 06:42 amSSW 5.1 8.0----29.68- 69.8 77.7 63.0---
2024-06-23 06:36 am SW 5.1 8.9----29.68- 69.8 77.7 62.8---
2024-06-23 06:30 amWSW 6.0 11.1----29.68- 69.3 77.7 62.8---
2024-06-23 06:24 am W 8.0 13.0----29.69- 70.5 77.7 63.1---
2024-06-23 06:18 am W 8.0 12.0----29.68- 71.4 77.7 63.3---
2024-06-23 06:12 am W 8.9 12.0----29.67- 72.1 77.7 63.5---
2024-06-23 06:06 am W 9.9 15.9----29.67- 72.3 77.7 63.5---
2024-06-23 06:00 am W 17.1 24.1----29.68-0.01- 77.7----
2024-06-23 05:54 amWNW 22.0 28.0----29.69-- 77.7----
2024-06-23 05:48 amWNW 27.0 33.0----29.69- 74.5 77.9 59.9---
2024-06-23 05:42 amWSW 9.9 17.1----29.65- 81.3 77.9 60.4---
2024-06-23 05:36 am W 8.9 15.0----29.65- 82.8 77.9 60.3---
2024-06-23 05:30 amWSW 7.0 12.0----29.65- 82.8 77.9 59.9---
2024-06-23 05:24 am SW 6.0 14.0----29.65- 82.8 77.9 59.4---
2024-06-23 05:18 amSSW 5.1 13.0----29.65- 82.9 77.9 59.4---
2024-06-23 05:12 am SW 7.0 12.0----29.64- 82.9 77.9 59.4---
2024-06-23 05:06 am SW 6.0 15.0----29.65- 82.9 77.9 59.4---
2024-06-23 05:00 am SW 7.0 12.0----29.65- 82.9 77.9 59.2---
2024-06-23 04:54 am SW 5.1 12.0----29.65- 82.9 77.9 59.4---
2024-06-23 04:48 am SW 7.0 18.1----29.66- 82.9 77.9 59.2---
2024-06-23 04:42 am SW 6.0 12.0----29.66- 82.9 77.9 59.4---
2024-06-23 04:36 am SW 4.1 13.0----29.66- 82.9 77.9 59.7---
2024-06-23 04:30 amWSW 5.1 13.0----29.67- 82.9 77.9 59.4---
2024-06-23 04:24 am SW 5.1 12.0----29.67- 82.9 77.9 59.4---
2024-06-23 04:18 am SW 4.1 11.1----29.67- 83.1 77.9 59.2---
2024-06-23 04:12 am SW 5.1 13.0----29.67- 83.3 77.9 59.0---
2024-06-23 04:06 am SW 5.1 18.1----29.67- 83.3 78.1 58.8---
2024-06-23 04:00 am SW 6.0 13.0----29.67-0.06 83.3 78.1 59.0---
2024-06-23 03:54 am SW 6.0 15.0----29.67- 83.3 78.1 58.8---
2024-06-23 03:48 am SW 5.1 15.0----29.67- 83.1 78.1 59.0---
2024-06-23 03:42 am SW 6.0 11.1----29.67- 83.3 78.1 59.0---
2024-06-23 03:36 amSSW 6.0 12.0----29.68- 83.3 78.1 59.4---
2024-06-23 03:30 amSSW 6.0 12.0----29.68- 83.3 78.1 59.4---
2024-06-23 03:24 amSSW 6.0 12.0----29.68- 83.3 78.1 59.4---
2024-06-23 03:18 amSSW 5.1 14.0----29.68- 83.1 78.1 59.4---
2024-06-23 03:12 amSSW 6.0 13.0----29.69- 83.3 78.1 59.4---
2024-06-23 03:06 am SW 7.0 12.0----29.69- 83.3 78.1 59.2---
2024-06-23 03:00 amSSW 5.1 14.0----29.69-0.07 83.3 78.1 59.0---
2024-06-23 02:54 amSSW 5.1 13.0----29.70- 83.3 78.1 58.6---